Location: Arnolds Mill
(42.3415°N, 73.5951°W)
Time: 12:31:47
(UTC+00:00)

STARLINK-34402 - Pass Details

Date: 23 June 2025
Orbit: 302 x 303 km, 53.2° (Epoch: 26 June)

Event Time Altitude Azimuth Distance (km) Brightness Sun altitude
Exits shadow 06:03:02 18° 339° (NNW) 844 5.2 -22.5°
Drops below altitude 10° 06:04:53 10° 24° (NNE) 1,179 6.4 -22.4°
Sets 06:07:12 0° 45° (NE) 2,002 7.5 -22.2°
